TimePDT,TemperatureF,Dew PointF,Humidity,Sea Level PressureIn,VisibilityMPH,Wind Direction,Wind SpeedMPH,Gust SpeedMPH,PrecipitationIn,Events,Conditions,WindDirDegrees,DateUTC
12:15 AM,53.6,50.0,88,30.18,10.0,West,3.5,-,N/A,,Clear,280,2012-10-02 07:15:00
12:55 AM,50.0,48.2,94,30.19,10.0,Calm,Calm,-,N/A,,Clear,0,2012-10-02 07:55:00
1:15 AM,50.0,48.2,94,30.19,10.0,SW,3.5,-,N/A,,Clear,220,2012-10-02 08:15:00
1:35 AM,48.2,48.2,100,30.20,10.0,East,3.5,-,N/A,,Clear,90,2012-10-02 08:35:00
1:55 AM,48.2,48.2,100,30.21,7.0,SW,3.5,-,N/A,,Clear,230,2012-10-02 08:55:00
2:15 AM,50.0,48.2,94,30.21,10.0,Calm,Calm,-,N/A,,Clear,0,2012-10-02 09:15:00
2:35 AM,50.0,46.4,87,30.21,6.0,SW,3.5,-,N/A,,Clear,230,2012-10-02 09:35:00
2:55 AM,50.0,48.2,94,30.20,6.0,Calm,Calm,-,N/A,,Clear,0,2012-10-02 09:55:00
3:15 AM,50.0,48.2,94,30.20,6.0,SSW,3.5,-,N/A,,Clear,210,2012-10-02 10:15:00
3:35 AM,50.0,48.2,94,30.20,6.0,SSW,3.5,-,N/A,,Clear,210,2012-10-02 10:35:00
3:55 AM,50.0,46.4,87,30.20,6.0,Calm,Calm,-,N/A,,Clear,0,2012-10-02 10:55:00
4:15 AM,50.0,46.4,87,30.20,7.0,Calm,Calm,-,N/A,,Clear,0,2012-10-02 11:15:00
4:35 AM,50.0,48.2,94,30.20,5.0,Calm,Calm,-,N/A,,Clear,0,2012-10-02 11:35:00
5:15 AM,48.2,46.4,93,30.21,5.0,Calm,Calm,-,N/A,,Clear,0,2012-10-02 12:15:00
5:35 AM,46.4,46.4,100,30.21,9.0,Calm,Calm,-,N/A,,Clear,0,2012-10-02 12:35:00
6:15 AM,46.4,46.4,100,30.21,5.0,Calm,Calm,-,N/A,,Clear,0,2012-10-02 13:15:00
6:35 AM,46.4,46.4,100,30.22,7.0,Calm,Calm,-,N/A,,Clear,0,2012-10-02 13:35:00
6:55 AM,46.4,46.4,100,30.22,10.0,Calm,Calm,-,N/A,,Clear,0,2012-10-02 13:55:00
7:15 AM,48.2,46.4,93,30.22,6.0,Calm,Calm,-,N/A,,Clear,0,2012-10-02 14:15:00
7:35 AM,48.2,46.4,93,30.22,5.0,Calm,Calm,-,N/A,,Clear,0,2012-10-02 14:35:00
7:55 AM,48.2,48.2,100,30.23,5.0,Calm,Calm,-,N/A,,Clear,0,2012-10-02 14:55:00
8:15 AM,50.0,48.2,94,30.22,8.0,Calm,Calm,-,N/A,,Clear,0,2012-10-02 15:15:00
8:35 AM,50.0,48.2,94,30.22,10.0,Calm,Calm,-,N/A,,Clear,0,2012-10-02 15:35:00
8:55 AM,50.0,48.2,94,30.23,10.0,Calm,Calm,-,N/A,,Clear,0,2012-10-02 15:55:00
9:15 AM,51.8,48.2,88,30.23,7.0,Calm,Calm,-,N/A,,Clear,0,2012-10-02 16:15:00
9:35 AM,53.6,48.2,82,30.22,10.0,Calm,Calm,-,N/A,,Clear,0,2012-10-02 16:35:00
9:55 AM,53.6,48.2,82,30.22,6.0,Calm,Calm,-,N/A,,Clear,0,2012-10-02 16:55:00
10:15 AM,57.2,50.0,77,30.21,5.0,Calm,Calm,-,N/A,,Haze,0,2012-10-02 17:15:00
10:35 AM,59.0,48.2,67,30.22,5.0,North,3.5,-,N/A,,Haze,10,2012-10-02 17:35:00
10:55 AM,57.2,48.2,72,30.22,10.0,Calm,Calm,-,N/A,,Clear,0,2012-10-02 17:55:00
11:15 AM,59.0,48.2,67,30.21,10.0,Calm,Calm,-,N/A,,Clear,0,2012-10-02 18:15:00
11:35 AM,60.8,48.2,63,30.20,10.0,Calm,Calm,-,N/A,,Partly Cloudy,0,2012-10-02 18:35:00
11:55 AM,62.6,48.2,59,30.20,10.0,ESE,3.5,-,N/A,,Partly Cloudy,120,2012-10-02 18:55:00
12:15 PM,62.6,48.2,59,30.20,10.0,North,4.6,-,N/A,,Scattered Clouds,360,2012-10-02 19:15:00
12:35 PM,62.6,48.2,59,30.20,7.0,NNE,6.9,-,N/A,,Partly Cloudy,20,2012-10-02 19:35:00
12:55 PM,62.6,46.4,55,30.19,10.0,Calm,Calm,-,N/A,,Mostly Cloudy,0,2012-10-02 19:55:00
1:15 PM,64.4,48.2,56,30.19,10.0,NNE,5.8,-,N/A,,Overcast,20,2012-10-02 20:15:00
1:35 PM,64.4,46.4,52,30.18,8.0,North,6.9,-,N/A,,Overcast,10,2012-10-02 20:35:00
1:55 PM,66.2,46.4,49,30.17,10.0,North,4.6,-,N/A,,Overcast,10,2012-10-02 20:55:00
2:15 PM,66.2,46.4,49,30.17,10.0,NNE,8.1,-,N/A,,Mostly Cloudy,20,2012-10-02 21:15:00
2:35 PM,66.2,46.4,49,30.16,10.0,NNE,5.8,-,N/A,,Scattered Clouds,20,2012-10-02 21:35:00
2:55 PM,66.2,48.2,52,30.16,7.0,NNW,4.6,-,N/A,,Scattered Clouds,340,2012-10-02 21:55:00
3:15 PM,66.2,48.2,52,30.16,10.0,NNW,6.9,-,N/A,,Scattered Clouds,340,2012-10-02 22:15:00
3:35 PM,64.4,50.0,59,30.16,10.0,NNW,5.8,-,N/A,,Partly Cloudy,340,2012-10-02 22:35:00
3:55 PM,64.4,48.2,56,30.16,10.0,NNW,5.8,-,N/A,,Clear,330,2012-10-02 22:55:00
4:15 PM,64.4,48.2,56,30.16,10.0,NW,8.1,-,N/A,,Clear,310,2012-10-02 23:15:00
4:35 PM,62.6,48.2,59,30.17,10.0,NNW,8.1,-,N/A,,Clear,340,2012-10-02 23:35:00
4:55 PM,62.6,48.2,59,30.17,10.0,NW,8.1,-,N/A,,Clear,310,2012-10-02 23:55:00
5:15 PM,62.6,46.4,55,30.17,5.0,NNW,5.8,-,N/A,,Haze,340,2012-10-03 00:15:00
5:35 PM,60.8,46.4,59,30.16,5.0,NNW,4.6,-,N/A,,Haze,330,2012-10-03 00:35:00
5:55 PM,60.8,46.4,59,30.17,6.0,NW,6.9,-,N/A,,Haze,320,2012-10-03 00:55:00
6:15 PM,60.8,46.4,59,30.17,8.0,NNE,12.7,17.3,N/A,,Clear,20,2012-10-03 01:15:00
6:35 PM,59.0,44.6,59,30.18,8.0,North,5.8,-,N/A,,Clear,10,2012-10-03 01:35:00
7:15 PM,57.2,42.8,59,30.19,10.0,North,3.5,-,N/A,,Clear,360,2012-10-03 02:15:00
7:35 PM,57.2,41.0,55,30.19,10.0,North,4.6,-,N/A,,Clear,360,2012-10-03 02:35:00
7:55 PM,55.4,39.2,54,30.20,10.0,NNE,5.8,-,N/A,,Clear,20,2012-10-03 02:55:00
8:15 PM,53.6,39.2,58,30.20,10.0,North,6.9,-,N/A,,Clear,10,2012-10-03 03:15:00
8:35 PM,53.6,39.2,58,30.21,10.0,NNE,8.1,-,N/A,,Clear,20,2012-10-03 03:35:00
8:55 PM,53.6,37.4,54,30.21,7.0,NNE,8.1,-,N/A,,Clear,30,2012-10-03 03:55:00
9:15 PM,53.6,37.4,54,30.22,10.0,North,3.5,-,N/A,,Clear,350,2012-10-03 04:15:00
9:35 PM,51.8,37.4,58,30.23,7.0,NNE,5.8,-,N/A,,Clear,20,2012-10-03 04:35:00
9:55 PM,50.0,37.4,62,30.23,7.0,NNE,6.9,-,N/A,,Clear,30,2012-10-03 04:55:00
10:15 PM,53.6,37.4,54,30.24,7.0,North,5.8,17.3,N/A,,Clear,360,2012-10-03 05:15:00
10:35 PM,51.8,37.4,58,30.24,7.0,North,8.1,-,N/A,,Clear,10,2012-10-03 05:35:00
10:55 PM,50.0,39.2,66,30.25,7.0,North,3.5,-,N/A,,Clear,360,2012-10-03 05:55:00
11:15 PM,50.0,39.2,66,30.26,7.0,North,8.1,-,N/A,,Clear,10,2012-10-03 06:15:00
11:35 PM,50.0,39.2,66,30.26,7.0,NNE,9.2,-,N/A,,Clear,20,2012-10-03 06:35:00
11:55 PM,50.0,39.2,66,30.26,7.0,NNE,8.1,-,N/A,,Clear,20,2012-10-03 06:55:00